Location: Baia Mare
(47.6567°N, 23.5850°E)
Time: 16:07:31
(UTC+03:00)

ISS - Pass Details

Date: 10 July 2018
Orbit: 402 x 408 km, 51.6° (Epoch: 23 July)

Event Time Altitude Azimuth Distance (km) Brightness Sun altitude
Exits shadow 02:23:21 16° 108° (ESE) 1,156 -1.6 -19.1°
Drops below altitude 10° 02:24:32 10° 90° (E) 1,470 -0.8 -19.0°
Sets 02:26:58 0° 73° (ENE) 2,336 0.5 -19.0°
